Location: Fayetteville
(35.0530°N, 78.8790°W)
Time: 23:33:40
(UTC-04:00)

ISS - Visible Passes

Search period start: 31 May 2016 00:00
Search period end: 10 June 2016 00:00
Orbit: 402 x 404 km, 51.6° (Epoch: 31 May)

Date Brightness Start Highest point End Pass type
(mag) Time Alt. Az. Time Alt. Az. Time Alt. Az.
31 May 0.3 02:05:50 10° N 02:05:58 10° NNE 02:05:58 10° NNE visible
01 Jun -0.2 21:02:35 10° WNW 21:04:35 15° NNW 21:06:35 10° N visible
06 Jun 0.0 00:01:11 10° N 00:01:49 12° N 00:01:49 12° N visible
07 Jun -0.3 23:51:12 10° NNW 23:52:09 16° NNW 23:52:09 16° NNW visible
08 Jun -0.8 22:58:55 10° N 23:01:00 16° NNE 23:01:04 16° NNE visible
09 Jun -0.4 22:07:27 10° NNE 22:07:54 10° NNE 22:08:22 10° NNE visible
09 Jun -0.5 23:41:39 10° NW 23:42:38 18° NW 23:42:38 18° NW visible
